Regional Weather Roundup
Issued by NWS Pendleton, OR

Home | Current Version | Previous Version | Text Only | Print | Product List | Glossary On
Versions: 1 2 3 4 5 6 7 8 9 10 11 12 13 14 15 16 17 18 19 20 21 22 23 24 25 26 27 28 29 30 31 32 33 34 35 36 37 38 39 40 41 42 43 44 45 46 47 48 49 50
085
ASUS46 KPDT 300425
RWRPDT
PENDLETON REGIONAL WEATHER ROUNDUP
NATIONAL WEATHER SERVICE PENDLETON OREGON
900 PM PDT MON MAY 29 2017

NOTE: FAIR INDICATES FEW OR NO CLOUDS BELOW 12,000 FEET WITH NO
SIGNIFICANT WEATHER AND/OR OBSTRUCTIONS TO VISIBILITY.

# INDICATES UNOFFICIAL STATION AND DATA

WAZ520-300510-
EAST SLOPES OF WASHINGTON CASCADES

CITY            SKY/WX      TMP DP  RH  WIND    PRES   REMARKS
#BULLFROG       N/A         72  55  55  E1      N/A
#CLE ELUM HS    N/A         77  51  40  CALM    29.86R
#CLE ELUM LAKE  N/A         72  49  44  N1      29.88R
#EASTON DOT     N/A         70  50  49  CALM    N/A
#ELK HTS DOT    N/A         74  74  100 E2      N/A
#GLENWOOD       N/A         74  50  43  NE1     29.84R
#NELSON 3SW     N/A         65  50  58  CALM    30.00R
#NILE           N/A         68  52  57  CALM    29.13R
#TEANAWAY 4NE   N/A         72  54  53  SW2     N/A
#TROUT LAKE 1NE N/A         74  50  43  NE1     29.83R
#TROUT LAKE 1E  N/A         77  51  40  NW1     29.93S
$$

WAZ521-300510-
SIMCOE HIGHLANDS

CITY            SKY/WX      TMP DP  RH  WIND    PRES   REMARKS
#BICKLETON HS   N/A         71  52  51  SW10    29.98R
#CENTERVILLE 1SWN/A         75  48  38  W7      29.80F
#GOLDENDALE 1NE N/A         77  30  18  W1      N/A
#GOLDENDALE 4W  N/A         76  19  12  W1      29.96S
#GOODNOE HILLS  N/A         78  46  32  NW9     N/A
#LYLE 6NE       N/A         79  48  34  SE7     29.79F
#PITT 4SE       N/A         73  46  38  CALM    29.84F
$$

WAZ026-300510-
KITTITAS VALLEY

CITY            SKY/WX      TMP DP  RH  WIND    PRES   REMARKS
ELLENSBURG AP   PTCLDY      75  53  46  E3      29.90R
YTC-OPS AREA    CLEAR       76  37  24  S6      30.00S
#ELLENSBURG CWU N/A         78  52  40  E1      29.76R
#ELLENSBURG 3NE N/A         71  52  51  CALM    27.99R
#KITTITAS 3S    N/A         65  56  73  CALM    29.81R
#MANASTASH RDG  N/A         78  78  100 E10     N/A
#ROCKY CYN DOT  N/A         79  49  35  E3      N/A
#RYEGRASS DOT   N/A         73  47  40  E3      N/A
#THORP 6N       N/A         74  52  46  SE5     29.84R
$$

WAZ027-300510-
YAKIMA VALLEY

CITY            SKY/WX      TMP DP  RH  WIND    PRES   REMARKS
SUNNYSIDE AP    CLEAR       71  52  51  CALM    29.85R
YAKIMA AIRPORT  PTCLDY      79  54  42  CALM    29.87R
YAKIMA-VAGABOND CLEAR       81  41  24  SE13    29.86S
#DONALD 2NE     N/A         80  18  10  W1      28.72R
#GRANDVIEW      N/A         78  45  31  CALM    29.82S
#MABTON         N/A         79  46  31  CALM    29.83S
#MOXEE 2E       N/A         76  N/A N/A E3      29.87R
#NACHES 2SW     N/A         77  57  50  CALM    29.93S
#OUTLOOK DOT    N/A         83  48  30  CALM    29.82R
#PARKER DOT     N/A         78  52  40  SW2     29.86R
#TERRACE HTS    N/A         79  47  32  CALM    29.78R
#TOPPENISH      N/A         83  55  38  CALM    29.72S
#I82 S UMTANUM RN/A         73  46  38  NE7     N/A
#UNION GAP DOT  N/A         79  47  32  CALM    29.88S
#WEST VALLEY    N/A         82  53  37  CALM    29.79R
#W YAKIMA       N/A         81  51  35  S1      29.81R
#WILEY CITY 3W  N/A         71  50  47  CALM    29.86R
#ZILLAH DOT     N/A         78  49  36  NE5     N/A
$$

WAZ028-300510-
LOWER COLUMBIA BASIN...WASHINGTON

CITY            SKY/WX      TMP DP  RH  WIND    PRES   REMARKS
PASCO           CLEAR       72  61  68  N3      29.82S
PROSSER AWOS    N/A         75  50  41  CALM    29.88R
RICHLAND AWOS   CLEAR       77  48  36  SW3     29.83R
#BENTON CITY    N/A         80  44  28  CALM    29.71S
#CONNELL 5N     N/A         77  55  47  NW2     29.80S
#CONNELL 5NW    N/A         74  55  51  NW1     29.76S
#ELTOPIA 6NW    N/A         81  53  38  CALM    28.83S
#KAHLOTUS       N/A         83  52  34  CALM    29.81R
#KENNEWICK 3S   N/A         80  48  33  CALM    29.81R
#PATERSON       N/A         83  51  33  E7      29.78S
#PROSSER DOT    N/A         77  50  39  CALM    29.86R
#SAGEMOOR 2W    N/A         77  54  45  N1      29.66R
#TOUCHET 2S     N/A         65  61  87  CALM    29.77R
#WEST PASCO     N/A         83  55  38  CALM    29.79R
$$

WAZ029-300510-
FOOTHILLS OF THE BLUES...WASHINGTON

CITY            SKY/WX      TMP DP  RH  WIND    PRES   REMARKS
WALLA WALLA AP  CLEAR       74  54  50  E12     29.86S
#CLYDE 6NW      N/A         72  51  48  CALM    29.80R
#DAYTON SCHOOL  N/A         72  48  43  N2      29.92R
#DELANEY DOT    N/A         69  49  49  CALM    29.88R
#LOWDEN 2SE     N/A         75  62  64  CALM    29.79R
#PLEASANT VIEW 1N/A         80  45  29  CALM    29.84S
#PRESCOTT       N/A         70  54  57  CALM    29.79R
#WHITMAN COLLEGEN/A         79  54  42  CALM    29.84S
#WAITSBURG 6SSE N/A         66  51  58  SE5     29.84R
#WAITSBURG 8N   N/A         64  N/A N/A N2      29.94S
#WALLA WALLA 5E N/A         68  52  57  N5      N/A
#WALLA WALLA U  N/A         84  56  38  CALM    29.79S
#WHITMAN MISSIONN/A         78  61  56  CALM    29.81S
$$

WAZ030-300510-
BLUE MOUNTAINS...WASHINGTON

CITY            SKY/WX      TMP DP  RH  WIND    PRES   REMARKS
#DIXIE 5SE      N/A         73  46  38  N8      29.91S
$$

ORZ009-041-WAZ024-300510-
COLUMBIA RIVER GORGE

CITY            SKY/WX      TMP DP  RH  WIND    PRES   REMARKS
THE DALLES AP   PTCLDY      84  46  27  E10     29.79F
#ARLINGTON AIRPON/A         80  48  33  W12     29.85R
#CELILO DOT     N/A         81  51  35  SW3     N/A
#LYLE           N/A         77  54  45  W3      29.83F
#MARYHILL       N/A         82  43  25  N9      29.72F
#MURDOCK        N/A         78  55  45  NW7     29.80F
#RUFUS DOT      N/A         83  46  27  W13     N/A
#SMITHVILLE     N/A         82  48  31  N8      29.74F

$$

ORZ510-300510-
NORTH CENTRAL OREGON

CITY            SKY/WX      TMP DP  RH  WIND    PRES   REMARKS
#ANTELOPE       N/A         65  53  65  E2      29.69R
#CHENOWITH 1W   N/A         51  35  54  NW14    N/A
#COW CYN RST AREN/A         69  46  44  N16     N/A
#DUFUR          N/A         71  52  51  E1      29.81F
#DUFUR 9E       N/A         72  47  41  S17     29.89R
#GRASS VALLEY 1SN/A         67  54  63  S13     30.03R
#KENT DOT       N/A         69  46  44  NW20    N/A
#MAUPIN SCHOOL  N/A         76  56  50  W1      29.94R
#MORO SCHOOL    N/A         76  53  45  SW8     30.03R
#SHANIKO 5WSW   N/A         67  43  42  N16     N/A
#SHANIKO 4NW    N/A         64  49  58  N8      30.03
#TYGH VALLEY 2NEN/A         76  49  39  N12     29.83R
#WAPANITIA AIRPON/A         68  54  61  W2      29.87R
#WASCO DOT      N/A         80  45  29  W9      N/A
#WASCO 5NE      N/A         76  50  40  CALM    29.83S
$$

ORZ511-300510-
CENTRAL OREGON

CITY            SKY/WX      TMP DP  RH  WIND    PRES   REMARKS
BEND AIRPORT    MOCLDY      70  45  41  N9      29.95R
MADRAS AIRPORT  CLOUDY      63  46  54  N7      29.99S
PRINEVILLE AP   MOCLDY      70  43  38  NW6     29.99R
REDMOND AIRPORT MOCLDY      71  44  38  N13     29.97R
#ASHWOOD SCHOOL N/A         68  54  61  CALM    29.92F
#BEND 1SW       N/A         68  46  45  CALM    N/A
#BEND-AWBREY    N/A         70  46  42  N3      29.83R
#BEND-KIM LN    N/A         71  45  39  N1      29.77R
#CULVER         N/A         66  50  56  CALM    29.77R
#CULVER 8W      N/A         71  48  44  CALM    30.00R
#MADRAS 4S      N/A         68  14  12  CALM    N/A
#POWELL BUTTE   N/A         71  45  39  W2      29.97R
#PRINEVILLE     N/A         76  43  31  CALM    29.85R
#PRINEVILLE 3N  N/A         72  47  41  NW3     29.80R
#WARM SPRINGS   N/A         71  52  51  CALM    29.74R

$$


ORZ509-300510-
EAST SLOPES OF OREGON CASCADES

CITY            SKY/WX      TMP DP  RH  WIND    PRES   REMARKS
SISTERS AWOS    N/A         73  45  37  N5      29.98R
#CAMP SHERMAN   N/A         71  45  39  CALM    29.89F
#LA PINE 4SW    N/A         67  41  39  SW2     30.06R
#LA PINE 4NW    N/A         67  47  49  CALM    29.86R
#LAVA BUTTE DOT N/A         69  40  35  N1      N/A
#SISTERS 3N     N/A         70  40  34  N2      30.00R
#SUNRIVER       N/A         68  44  42  N1      29.84R
#TUMALO 3W      N/A         69  44  40  N7      29.70R
#WANOGA BUTTE D N/A         62  37  39  NE5     N/A

$$

ORZ044-300510-
LOWER COLUMBIA BASIN...OREGON

CITY            SKY/WX      TMP DP  RH  WIND    PRES   REMARKS
HERMISTON       CLEAR       79  50  36  N6      29.82R
#BOARDMAN SCHOOLN/A         81  52  37  CALM    29.79S
#BOARDMAN 8SW   N/A         82  54  38  W3      29.81R
#ECHO 8SW       N/A         73  54  51  CALM    29.84R
#I-84 EX 198 DOTN/A         80  54  41  NE12    N/A
#IONE SCHOOL    N/A         81  47  30  W6      29.81R
#UMATILLA       N/A         85  52  32  CALM    29.72R
$$

ORZ507-300510-
NORTHERN FOOTHILLS OF THE BLUES

CITY            SKY/WX      TMP DP  RH  WIND    PRES   REMARKS
PENDLETON AIRPT CLEAR       73  50  44  NE14    29.86S
#ADAMS 3WNW     N/A         67  54  63  NE2     29.80S
#ATHENA         N/A         72  53  51  CALM    29.84S
#CAYUSE         N/A         75  46  36  E8      29.78S
#HELIX SCHOOL   N/A         74  47  38  N7      29.81S
#HELIX 3N       N/A         72  46  39  NE8     29.88S
#HOLDMAN 5SE    N/A         76  50  40  NE1     29.86S
#HOLDMAN 6E     N/A         73  50  44  N7      29.61S
#M-F FERNDALE   N/A         78  56  47  CALM    29.82R
#M-F GROVE ELEM N/A         72  49  44  CALM    29.84R
#M-FREEWATER 5SEN/A         72  51  48  N1      29.87R
#PENDLETON DNTN N/A         77  46  33  N2      29.83S
#PDT AQUATIC CTRN/A         76  48  37  NE5     29.84S
#PDT SUNRIDGE   N/A         74  52  46  NE1     29.86R
#PENDLETON 7NW  N/A         74  56  53  CALM    32.30R
#PILOT ROCK 1S  N/A         70  49  47  SE1     29.90S
#PILOT ROCK     N/A         74  52  46  CALM    29.92R
#TUTUILLA       N/A         70  52  53  CALM    29.83S
#UMAPINE 2E     N/A         72  61  68  CALM    29.80S
#WESTON SCHOOL  N/A         74  39  28  CALM    29.83R

$$

ORZ508-300510-
SOUTHERN FOOTHILLS OF THE BLUES

CITY            SKY/WX      TMP DP  RH  WIND    PRES   REMARKS
LEXINGTON       PTCLDY      75  46  36  W5      29.93R
#AJAX           N/A         78  41  27  S13     30.11R
#CONDON 5W      N/A         70  43  38  W12     30.01R
#FOSSIL SCHOOL  N/A         72  50  46  NW7     29.93R
#HEPPNER EOC    N/A         75  45  34  SE3     29.74R
#LEXINGTON 2SE  N/A         75  50  41  CALM    29.85R
#MIKKALO        N/A         77  43  30  W2      30.04R
#OLEX 4N        N/A         78  49  36  CALM    29.88R
#RUGGS 5NE      N/A         71  40  32  E3      30.14S
#RUGGS 2SW      N/A         73  45  37  CALM    29.81R

$$

ORZ502-503-300510-
BLUE MOUNTAINS

CITY            SKY/WX      TMP DP  RH  WIND    PRES   REMARKS
MEACHAM         MOCLDY      64  43  46  CALM    30.03R
#BATTLE MTN DOT N/A         68  41  37  NE3     N/A
#GRANITE        N/A         54  37  52  CALM    29.85R
#GREENHORN 9SW  N/A         65  42  43  E1      30.01R
#HARDMAN 10S    N/A         69  44  40  CALM    29.93R
#LADD CYN SMT   N/A         66  47  50  CALM    N/A
#LADD CREEK ODOTN/A         67  47  49  SW3     N/A
#LONG CREEK HS  N/A         61  45  56  CALM    N/A
#N POWDER DOT   N/A         71  49  46  W3      N/A
#PIKES PEAK     N/A         76  37  24  CALM    27.99S
#SUMMERVILLE 5NWN/A         62  44  52  CALM    30.02R
#TOLLGATE       N/A         60  37  42  CALM    29.96R
#TROY SCHOOL    N/A         69  55  61  CALM    29.69R
#UKIAH          N/A         68  50  53  CALM    29.77R
#WESTON 4E      N/A         72  40  31  CALM    29.78S
$$

ORZ505-300510-
JOHN DAY BASIN

CITY            SKY/WX      TMP DP  RH  WIND    PRES   REMARKS
JOHN DAY        CLEAR       73  34  24  E3      30.00R
#ANTELOPE 9ESE  N/A         78  48  35  NE6     N/A
#DAYVILLE SCHOOLN/A         79  34  20  CALM    29.87R
#MITCHELL       N/A         73  52  48  W1      30.16R
#MITCHELL 8NW   N/A         73  43  34  CALM    29.84R
#MONUMENT HS    N/A         81  42  25  SE2     29.84R
#MT. VERNON 5SE N/A         72  32  23  E3      29.96R
#SPRAY SCHOOL   N/A         82  N/A N/A CALM    N/A
$$

ORZ506-300510-
OCHOCO AND JOHN DAY HIGHLANDS

CITY            SKY/WX      TMP DP  RH  WIND    PRES   REMARKS
#HORSE RIDGE DO N/A         72  37  28  NW14    N/A
#PAULINA ODOT   N/A         78  28  16  NW6     N/A
#PINE MTN OBS   N/A         61  39  44  NW1     N/A
#PRAIRIE CITY   N/A         66  42  42  CALM    30.14
#SENECA         N/A         69  N/A N/A E2      N/A
#SENECA 9NW     N/A         59  39  47  CALM    29.86R
$$

ORZ049-300510-
GRANDE RONDE VALLEY

CITY            SKY/WX      TMP DP  RH  WIND    PRES   REMARKS
LA GRANDE       CLEAR       70  45  41  S8      29.96R
#COVE           N/A         71  54  55  NE2     30.00R
#COVE SCHOOL    N/A         72  49  44  CALM    29.99R
#COVE 6NW       N/A         71  53  53  CALM    29.83R
#ELGIN 3N       N/A         67  44  43  CALM    29.95R
#ELGIN 1E       N/A         72  47  41  CALM    N/A
#IMBLER SCHOOL  N/A         70  47  44  CALM    29.92R
#ISLAND CITY 4N N/A         65  60  84  CALM    29.93F
#LA GRANDE-LEFFEN/A         72  45  38  N5      29.97R
#UNION 1S       N/A         72  51  48  CALM    29.83R
$$

ORZ050-300510-
WALLOWA COUNTY

CITY            SKY/WX      TMP DP  RH  WIND    PRES   REMARKS
JOSEPH AIRPORT  PTCLDY      61  41  48  S5      30.06R
#ENTERPRISE HS  N/A         68  47  47  CALM    29.74R
#IMNAHA SCHOOL  N/A         72  50  46  CALM    29.93R
#IMNAHA 10S     N/A         67  47  49  SW5     29.97R
#JOSEPH         N/A         67  41  39  S3      30.06R
#JOSEPH 3N      N/A         64  41  43  CALM    30.07R
#LOSTINE        N/A         69  43  39  S3      29.67R
#MT HOWARD 8000 N/A         55  35  47  CALM    30.32R
#PROMISE 1S     N/A         64  52  65  SE1     29.95R
#WALLOWA LAKE   N/A         64  40  41  S2      30.10R
#WALLOWA SCHOOL N/A         68  52  57  CALM    29.96R



$$



USA.gov is the U.S. government's official web portal to all federal, state and local government web resources and services.